Lake Camanche Weather Center

Moon Phase Calendar



Lake Camanche Water Level
Online Cameras

 


      

Current Conditions in Camanche Village
4/12/2024 7:12:38 AM

55°F
Feels Like 55
Clouds
Humidity
93%
Pressure
29.68"
Wind
3.6 mph (SSE)
Dew Point
53°F
UV Index
0/10 (Low)
Visibility
4 mi

Hourly Forecast

Date & Time Fri, Apr 12
7:00 AM
Fri, Apr 12
8:00 AM
Fri, Apr 12
9:00 AM
Fri, Apr 12
10:00 AM
Fri, Apr 12
11:00 AM
Fri, Apr 12
12:00 PM
Fri, Apr 12
1:00 PM
Fri, Apr 12
2:00 PM
Fri, Apr 12
3:00 PM
Fri, Apr 12
4:00 PM
Fri, Apr 12
5:00 PM
Fri, Apr 12
6:00 PM
Fri, Apr 12
7:00 PM
Fri, Apr 12
8:00 PM
Fri, Apr 12
9:00 PM
Fri, Apr 12
10:00 PM
Fri, Apr 12
11:00 PM
Sat, Apr 13
12:00 AM
Sat, Apr 13
1:00 AM
Sat, Apr 13
2:00 AM
Sat, Apr 13
3:00 AM
Sat, Apr 13
4:00 AM
Sat, Apr 13
5:00 AM
Sat, Apr 13
6:00 AM
Sat, Apr 13
7:00 AM
Sat, Apr 13
8:00 AM
Sat, Apr 13
9:00 AM
Sat, Apr 13
10:00 AM
Sat, Apr 13
11:00 AM
Sat, Apr 13
12:00 PM
Sat, Apr 13
1:00 PM
Sat, Apr 13
2:00 PM
Sat, Apr 13
3:00 PM
Sat, Apr 13
4:00 PM
Sat, Apr 13
5:00 PM
Sat, Apr 13
6:00 PM
Sat, Apr 13
7:00 PM
Sat, Apr 13
8:00 PM
Sat, Apr 13
9:00 PM
Sat, Apr 13
10:00 PM
Sat, Apr 13
11:00 PM
Sun, Apr 14
12:00 AM
Sun, Apr 14
1:00 AM
Sun, Apr 14
2:00 AM
Sun, Apr 14
3:00 AM
Sun, Apr 14
4:00 AM
Sun, Apr 14
5:00 AM
Sun, Apr 14
6:00 AM
Condition
Rain

Clouds

Clouds

Rain

Rain

Clouds

Rain

Clouds

Clouds

Clouds

Clouds

Clouds

Clouds

Clouds

Clouds

Clouds

Clouds

Clouds

Clouds

Clouds

Clouds

Clouds

Clouds

Clouds

Clouds

Clouds

Rain

Rain

Rain

Rain

Rain

Rain

Rain

Rain

Rain

Rain

Clouds

Clouds

Clouds

Clouds

Clouds

Clouds

Clouds

Clouds

Clouds

Clouds

Clouds

Clouds
Temperature 55°F55°F57°F59°F63°F68°F69°F70°F70°F69°F66°F65°F59°F54°F51°F50°F49°F49°F49°F49°F52°F54°F55°F56°F56°F56°F50°F45°F45°F44°F43°F43°F44°F44°F45°F46°F45°F45°F44°F44°F44°F44°F42°F41°F41°F41°F41°F41°F
Feels Like 55°F55°F56°F59°F63°F67°F68°F69°F70°F68°F65°F64°F58°F52°F50°F48°F47°F48°F47°F47°F51°F53°F54°F55°F55°F55°F49°F39°F40°F41°F39°F39°F38°F39°F41°F42°F42°F41°F41°F41°F42°F41°F39°F40°F39°F41°F41°F39°F
Cloudiness 40%41%45%54%50%48%74%75%63%54%48%34%27%21%29%30%26%42%34%45%58%67%72%100%100%100%100%100%100%100%100%100%100%100%100%100%100%100%100%99%98%98%96%98%95%96%97%100%
Visibility 4 mi4 mi6 mi6 mi6 mi6 mi6 mi6 mi6 mi6 mi6 mi6 mi6 mi6 mi6 mi6 mi6 mi6 mi6 mi6 mi6 mi6 mi6 mi6 mi6 mi6 mi4 mi0 mi2 mi2 mi3 mi4 mi6 mi6 mi6 mi6 mi6 mi6 mi6 mi6 mi6 mi6 mi6 mi6 mi6 mi6 mi6 mi6 mi
Precipitation 100%80%80%100%100%2%24%27%18%9%4%0%0%0%0%0%0%0%0%0%0%0%0%0%0%50%94%100%100%100%100%100%100%100%100%91%69%43%23%9%2%0%0%0%0%0%0%0%
Humidity 93%92%89%83%73%58%54%52%51%54%56%64%71%77%80%84%86%85%87%86%74%73%75%73%71%71%88%96%96%96%95%95%94%93%92%93%94%95%95%96%95%95%96%95%95%93%93%94%
Dew Point 53°F53°F54°F54°F55°F52°F52°F51°F51°F51°F50°F52°F50°F47°F45°F45°F45°F45°F45°F45°F44°F46°F47°F47°F47°F47°F47°F44°F43°F43°F41°F41°F42°F42°F43°F44°F44°F43°F43°F43°F42°F42°F40°F40°F39°F39°F39°F39°F
Pressure 29.68"29.68"29.68"29.71"29.71"29.71"29.71"29.71"29.71"29.68"29.68"29.71"29.71"29.74"29.77"29.8"29.8"29.8"29.8"29.8"29.8"29.8"29.8"29.8"29.8"29.8"29.85"29.88"29.91"29.91"29.94"29.97"29.97"29.94"29.94"29.94"29.97"29.97"30"30"30.03"30"30.03"30.03"30.03"30.03"30.03"30.06"
Wind Speed 3.6 mph3.6 mph2.9 mph2.6 mph4.2 mph6.2 mph6.2 mph6.1 mph6.7 mph8.8 mph8.9 mph5.8 mph6.2 mph5.8 mph5.6 mph4.8 mph4.8 mph4 mph4.2 mph5.7 mph9.8 mph12.6 mph12.3 mph13.3 mph12.1 mph6.7 mph5.1 mph10.2 mph8.5 mph6.3 mph5.3 mph7.6 mph10.6 mph10.2 mph8.3 mph6.9 mph6.5 mph6.6 mph5.7 mph4.7 mph4.1 mph4.9 mph3.9 mph3.2 mph3.2 mph2.3 mph3 mph4 mph
Wind
Direction
166°
SSE
202°
SSW
220°
SW
192°
SSW
199°
SSW
235°
SW
244°
WSW
265°
W
286°
WNW
301°
WNW
314°
NW
322°
NW
313°
NW
312°
NW
331°
NNW
22°
NNE
46°
NE
38°
NE
70°
ENE
116°
ESE
138°
SE
143°
SE
137°
SE
145°
SE
137°
SE
147°
SSE
273°
W
310°
NW
310°
NW
329°
NNW
39°
NE
79°
E
90°
E
83°
E
108°
ESE
138°
SE
167°
SSE
159°
SSE
163°
SSE
146°
SE
113°
ESE
92°
E
85°
E
44°
NE
45°
NE
154°
SSE
151°
SSE
132°
SE

Daily Forecast

Date High Low Precip. Humidity
Today
Apr 12

Rain
70 °F
49 °F
100%
54%
Saturday
Apr 13

Rain
56 °F
43 °F
100%
95%
Sunday
Apr 14

Clouds
54 °F
41 °F
0%
83%
Monday
Apr 15

Clouds
62 °F
41 °F
0%
58%
Tuesday
Apr 16

Clouds
69 °F
46 °F
0%
59%
Wednesday
Apr 17

Clouds
70 °F
50 °F
0%
61%
Thursday
Apr 18

Clouds
72 °F
52 °F
0%
58%
Friday
Apr 19

Clear
74 °F
54 °F
0%
50%
Saturday
Apr 20

Clouds
69 °F
50 °F
0%
41%
Sunday
Apr 21

Clear
75 °F
47 °F
0%
43%
Monday
Apr 22

Clouds
79 °F
53 °F
0%
46%
Tuesday
Apr 23

Clear
81 °F
58 °F
0%
46%
Wednesday
Apr 24

Clear
75 °F
56 °F
0%
38%
Thursday
Apr 25

Clouds
73 °F
48 °F
0%
45%
Friday
Apr 26

Clear
69 °F
44 °F
0%
44%
Saturday
Apr 27

Rain
62 °F
44 °F
100%
55%

Temperature 8-14 Day Outlook



Precipitation 8-14 Day Outlook




Quick Links
Lake Camanche News
Lake Camanche Photos
Lake Camanche Videos




About Us
Contact Us
Site Map
Search Site
Advertise With Us
   
Camanche.USLakes.info
THE LAKE CAMANCHE WEBSITE

Copyright 2024, Lakes Online
Privacy    |    Legal